This demonstration page uses our WeatherBlox Daily Observations layout. Learn more.

Left ArrowRight Arrow

Hourly Observations for July 26, 2016

Temp ( °F °C ) Dew Point ( °F °C ) Humidity (%) Winds ( mph kmh ) Pressure ( in mb ) Visibility ( mi km ) Precip ( " mm )
12:58 am 00:58 Clear 66 19.1 66 18.8 98 98 undefined N/A 30.08 1019 10 16 0.00 0.00
1:12 am 01:12 Clear 66 19 66 19 100 100 SSE 1 2 30.06 1018 10 16 0.00 0.00
1:58 am 01:58 Clear 65 18.5 65 18.5 100 100 Calm 30.07 1018 10 16 0.00 0.00
2:58 am 02:58 Clear 65 18.3 65 18.3 100 100 Calm 30.06 1018 10 16 0.00 0.00
3:58 am 03:58 Clear 63 17.2 63 17.2 100 100 W 2 4 30.06 1018 10 16 0.00 0.00
4:58 am 04:58 Clear 62 16.8 62 16.8 100 100 Calm 30.07 1018 10 16 0.00 0.00
5:58 am 05:58 Clear 62 16.7 62 16.7 100 100 VRB 2 4 30.07 1018 10 16 0.00 0.00
6:19 am 06:19 Sunny 63 17 63 17 100 100 E 2 4 30.06 1018 10 16 0.00 0.00
6:59 am 06:59 Sunny 64 18 64 18 100 100 E 2 4 30.07 1018 10 16 0.00 0.00
7:58 am 07:58 Sunny 68 20 68 20 100 100 ESE 3 6 30.07 1018 10 16 0.00 0.00
8:58 am 08:58 Sunny 71 21.9 71 21.9 100 100 ESE 5 7 30.08 1019 10 16 0.00 0.03
9:58 am 09:58 Sunny 78 25.4 67 19.3 69 69 SE 8 13 30.07 1018 10 16 0.00 0.03
10:58 am 10:58 Sunny 82 27.5 66 18.7 59 59 ESE 8 13 30.07 1018 10 16 0.00 0.00
11:58 am 11:58 Sunny 83 28.6 65 18.1 53 53 E 7 11 30.07 1018 10 16 0.00 0.00
12:58 pm 12:58 Sunny 84 29.1 64 17.7 50 50 SE 7 11 30.06 1018 10 16 0.00 0.00
1:58 pm 13:58 Sunny 85 29.6 63 17.3 48 48 E 8 13 30.04 1017 10 16 0.00 0.00
2:58 pm 14:58 Sunny 85 29.7 64 17.9 49 49 SE 10 17 30.03 1017 10 16 0.00 0.00
3:58 pm 15:58 Sunny 86 30.1 65 18.5 50 50 SE 8 13 30.01 1016 10 16 0.00 0.00
4:58 pm 16:58 Sunny 86 30 66 19 52 52 VRB 3 6 30.00 1016 10 16 0.00 0.00
5:58 pm 17:58 Sunny 86 29.8 66 19 52 52 E 7 11 30.00 1016 10 16 0.00 0.00
6:58 pm 18:58 Sunny 84 28.8 67 19.2 56 56 ESE 8 13 29.99 1016 10 16 0.00 0.00
7:58 pm 19:58 Sunny 81 27.3 69 20.5 66 66 ESE 7 11 29.98 1015 10 16 0.00 0.00
8:58 pm 20:58 Clear 76 24.7 70 20.9 79 79 ESE 8 13 29.98 1015 10 16 0.00 0.00
9:58 pm 21:58 Clear 71 21.7 69 20.4 92 92 E 5 7 30.00 1016 10 16 0.00 0.00
10:58 pm 22:58 Clear 69 20.6 68 20 96 96 E 2 4 30.01 1016 10 16 0.00 0.00
11:58 pm 23:58 Clear 67 19.6 67 19.6 100 100 E 5 7 30.00 1016 10 16 0.00 0.00

Powered by AerisWeather